Location: Marse
(42.1502°N, 110.9866°W)
Time: 09:46:00
(UTC+00:00)

ITUPSAT 1 - Visible Passes

Search period start: 30 June 2022 00:00
Search period end: 10 July 2022 00:00
Orbit: 700 x 712 km, 98.6° (Epoch: 29 June)

Date Brightness Start Highest point End Pass type
(mag) Time Alt. Az. Time Alt. Az. Time Alt. Az.
30 Jun ? 03:41:27 10° NNE 03:46:13 68° ESE 03:50:59 10° S visible
30 Jun ? 05:20:49 10° NNW 05:23:26 15° WNW 05:26:02 10° W visible
01 Jul ? 04:25:27 10° N 04:30:00 45° WNW 04:34:32 10° SW visible
02 Jul ? 03:31:26 10° NNE 03:36:08 53° E 03:40:49 10° S visible
02 Jul ? 05:10:16 10° NNW 05:13:29 18° WNW 05:16:43 10° WSW visible
03 Jul ? 04:15:17 10° N 04:19:58 57° WNW 04:24:39 10° SSW visible
04 Jul ? 04:59:51 10° NNW 05:03:32 22° WNW 05:07:12 10° WSW visible
05 Jul ? 04:05:09 10° N 04:09:56 72° WNW 04:14:42 10° SSW visible
06 Jul ? 04:49:31 10° N 04:53:33 28° WNW 04:57:35 10° SW visible
07 Jul ? 03:55:03 10° NNE 03:59:52 90° E 04:04:41 10° SSW visible
07 Jul ? 05:35:25 10° NW 05:36:54 11° WNW 05:38:23 10° WNW visible
08 Jul ? 04:39:15 10° N 04:43:34 34° WNW 04:47:52 10° SW visible
09 Jul ? 03:45:00 10° NNE 03:49:48 72° ESE 03:54:35 10° S visible
09 Jul ? 05:24:29 10° NNW 05:26:58 14° WNW 05:29:27 10° W visible
